When you browse on this site, cookies collect data to enhance your experience and personalize the content and advertising you see.
Visit our Privacy Policy to learn more. By continuing to use the site, you agree to this use of cookies and data.
  • In Austria
  • List of Countries
  • For 7 days
  • Water Temperature
  • Satellite Maps
  • Weather Map
  • News
  • Weather Widgets
  • user-avatar
    Login

    Hourly Weather Jewłach

    Today, 21 May, Tuesday

    Time Temperature Precipitation Wind Pressure Humidity
    00:00 +21°C° 0.5 mm 3 mps 761 mmHg 63%
    01:00 +20°C° 0 mm 3 mps 761 mmHg 62%
    02:00 +20°C° 0 mm 3 mps 761 mmHg 62%
    03:00 +19°C° 0 mm 2 mps 761 mmHg 62%
    04:00 +20°C° 0 mm 2 mps 761 mmHg 61%
    05:00 +20°C° 0 mm 2 mps 762 mmHg 60%
    06:00 +20°C° 0 mm 2 mps 762 mmHg 59%
    07:00 +20°C° 0 mm 3 mps 762 mmHg 57%
    08:00 +21°C° 0 mm 3 mps 763 mmHg 55%
    09:00 +21°C° 0 mm 3 mps 763 mmHg 53%
    10:00 +23°C° 0 mm 4 mps 763 mmHg 49%
    11:00 +25°C° 0 mm 5 mps 763 mmHg 44%
    12:00 +27°C° 0 mm 5 mps 763 mmHg 40%
    13:00 +27°C° 0 mm 5 mps 763 mmHg 39%
    14:00 +28°C° 0 mm 5 mps 763 mmHg 38%
    15:00 +29°C° 0 mm 5 mps 762 mmHg 36%
    16:00 +28°C° 0 mm 5 mps 763 mmHg 39%
    17:00 +27°C° 0 mm 5 mps 763 mmHg 41%
    18:00 +27°C° 0 mm 4 mps 763 mmHg 44%
    19:00 +25°C° 0 mm 5 mps 763 mmHg 44%
    20:00 +23°C° 0 mm 5 mps 764 mmHg 45%
    21:00 +21°C° 0 mm 5 mps 764 mmHg 46%
    22:00 +20°C° 0 mm 4 mps 764 mmHg 48%
    23:00 +19°C° 0 mm 4 mps 764 mmHg 50%

    Tomorrow, 22 May, Wednesday

    Time Temperature Precipitation Wind Pressure Humidity
    00:00 +19°C° 0 mm 4 mps 764 mmHg 53%
    01:00 +18°C° 0 mm 3 mps 764 mmHg 54%
    02:00 +17°C° 0 mm 3 mps 764 mmHg 55%
    03:00 +17°C° 0 mm 2 mps 764 mmHg 57%
    04:00 +17°C° 0 mm 2 mps 764 mmHg 56%
    05:00 +19°C° 0 mm 1 mps 764 mmHg 56%
    06:00 +19°C° 0 mm 1 mps 764 mmHg 55%
    07:00 +21°C° 0 mm 1 mps 763 mmHg 51%
    08:00 +21°C° 0 mm 2 mps 763 mmHg 47%
    09:00 +23°C° 0 mm 2 mps 762 mmHg 43%
    10:00 +24°C° 0 mm 2 mps 762 mmHg 40%
    11:00 +25°C° 0 mm 2 mps 761 mmHg 38%
    12:00 +27°C° 0 mm 2 mps 760 mmHg 35%
    13:00 +27°C° 0 mm 1 mps 760 mmHg 35%
    14:00 +28°C° 0 mm 1 mps 759 mmHg 34%
    15:00 +28°C° 0 mm 1 mps 759 mmHg 33%
    16:00 +28°C° 0 mm 1 mps 759 mmHg 36%
    17:00 +27°C° 0 mm 1 mps 758 mmHg 38%
    18:00 +27°C° 0 mm 2 mps 758 mmHg 41%
    19:00 +26°C° 0.1 mm 2 mps 759 mmHg 46%
    20:00 +25°C° 0.1 mm 3 mps 759 mmHg 51%
    21:00 +24°C° 0.1 mm 3 mps 760 mmHg 56%
    22:00 +22°C° 0 mm 3 mps 759 mmHg 56%
    23:00 +22°C° 0 mm 3 mps 759 mmHg 55%

    Day after tomorrow, 23 May, Thursday

    Time Temperature Precipitation Wind Pressure Humidity
    00:00 +22°C° 0 mm 3 mps 759 mmHg 55%
    01:00 +21°C° 0 mm 4 mps 759 mmHg 51%
    02:00 +21°C° 0 mm 4 mps 759 mmHg 48%
    03:00 +20°C° 0 mm 5 mps 758 mmHg 45%
    04:00 +20°C° 0 mm 6 mps 758 mmHg 47%
    05:00 +20°C° 0 mm 7 mps 758 mmHg 50%
    06:00 +20°C° 0 mm 7 mps 758 mmHg 52%
    07:00 +22°C° 0 mm 7 mps 758 mmHg 48%
    08:00 +24°C° 0 mm 8 mps 758 mmHg 44%
    09:00 +27°C° 0 mm 8 mps 758 mmHg 40%
    10:00 +28°C° 0 mm 7 mps 757 mmHg 37%
    11:00 +29°C° 0 mm 7 mps 757 mmHg 33%
    12:00 +32°C° 0 mm 6 mps 757 mmHg 30%
    13:00 +32°C° 0 mm 6 mps 756 mmHg 28%
    14:00 +33°C° 0 mm 6 mps 756 mmHg 27%
    15:00 +33°C° 0 mm 5 mps 756 mmHg 25%
    16:00 +32°C° 0 mm 5 mps 756 mmHg 27%
    17:00 +30°C° 0 mm 5 mps 756 mmHg 28%
    18:00 +28°C° 0 mm 5 mps 757 mmHg 30%
    19:00 +26°C° 0.3 mm 4 mps 757 mmHg 32%
    20:00 +25°C° 0.3 mm 2 mps 758 mmHg 34%
    21:00 +23°C° 0.3 mm 1 mps 759 mmHg 35%
    22:00 +23°C° 0 mm 1 mps 759 mmHg 40%
    23:00 +22°C° 0 mm 1 mps 759 mmHg 45%

    24 May, Friday

    Time Temperature Precipitation Wind Pressure Humidity
    00:00 +22°C° 0 mm 1 mps 760 mmHg 50%
    01:00 +21°C° 0 mm 1 mps 760 mmHg 54%
    02:00 +20°C° 0 mm 1 mps 760 mmHg 58%
    03:00 +20°C° 0 mm 1 mps 760 mmHg 62%
    04:00 +20°C° 0 mm 1 mps 760 mmHg 60%
    05:00 +21°C° 0 mm 1 mps 760 mmHg 58%
    06:00 +21°C° 0 mm 1 mps 760 mmHg 56%
    07:00 +23°C° 0 mm 1 mps 760 mmHg 50%
    08:00 +24°C° 0 mm 2 mps 760 mmHg 44%
    09:00 +26°C° 0 mm 2 mps 760 mmHg 38%
    10:00 +27°C° 0 mm 2 mps 760 mmHg 35%
    11:00 +28°C° 0 mm 2 mps 759 mmHg 32%
    12:00 +29°C° 0 mm 2 mps 759 mmHg 29%
    13:00 +30°C° 0 mm 1 mps 759 mmHg 28%
    14:00 +31°C° 0 mm 1 mps 759 mmHg 27%
    15:00 +31°C° 0 mm 1 mps 758 mmHg 25%
    16:00 +31°C° 0 mm 1 mps 758 mmHg 28%
    17:00 +31°C° 0 mm 1 mps 759 mmHg 31%
    18:00 +30°C° 0 mm 1 mps 759 mmHg 34%
    19:00 +29°C° 0 mm 2 mps 759 mmHg 37%
    20:00 +27°C° 0 mm 2 mps 760 mmHg 40%
    21:00 +25°C° 0 mm 3 mps 760 mmHg 43%
    22:00 +24°C° 0 mm 3 mps 760 mmHg 47%
    23:00 +22°C° 0 mm 3 mps 760 mmHg 51%

    25 May, Saturday

    Time Temperature Precipitation Wind Pressure Humidity
    00:00 +21°C° 0 mm 3 mps 760 mmHg 55%
    01:00 +21°C° 0 mm 2 mps 760 mmHg 55%
    02:00 +22°C° 0 mm 1 mps 760 mmHg 55%
    03:00 +19°C° 0 mm 0 mps 760 mmHg 56%
    04:00 +20°C° 0 mm 0 mps 760 mmHg 57%
    05:00 +20°C° 0 mm 0 mps 760 mmHg 57%
    06:00 +20°C° 0 mm 0 mps 760 mmHg 58%
    07:00 +22°C° 0 mm 0 mps 760 mmHg 54%
    08:00 +26°C° 0 mm 1 mps 759 mmHg 49%
    09:00 +27°C° 0 mm 1 mps 759 mmHg 44%
    10:00 +29°C° 0 mm 1 mps 758 mmHg 39%
    11:00 +30°C° 0 mm 1 mps 758 mmHg 35%
    12:00 +32°C° 0 mm 1 mps 757 mmHg 30%
    13:00 +33°C° 0 mm 1 mps 757 mmHg 29%
    14:00 +34°C° 0 mm 1 mps 757 mmHg 28%
    15:00 +36°C° 0 mm 2 mps 756 mmHg 27%
    16:00 +35°C° 0 mm 2 mps 756 mmHg 29%
    17:00 +35°C° 0 mm 2 mps 756 mmHg 31%
    18:00 +34°C° 0 mm 2 mps 756 mmHg 34%
    19:00 +32°C° 0 mm 2 mps 757 mmHg 38%
    20:00 +30°C° 0 mm 1 mps 757 mmHg 42%
    21:00 +29°C° 0 mm 1 mps 757 mmHg 46%
    22:00 +28°C° 0 mm 2 mps 757 mmHg 47%
    23:00 +27°C° 0 mm 2 mps 757 mmHg 49%

    26 May, Sunday

    Time Temperature Precipitation Wind Pressure Humidity
    00:00 +26°C° 0 mm 2 mps 756 mmHg 50%
    01:00 +26°C° 0.1 mm 2 mps 756 mmHg 51%
    02:00 +25°C° 0.1 mm 2 mps 756 mmHg 52%
    03:00 +25°C° 0.1 mm 2 mps 756 mmHg 53%
    04:00 +25°C° 0 mm 3 mps 756 mmHg 52%
    05:00 +25°C° 0 mm 4 mps 756 mmHg 51%
    06:00 +25°C° 0 mm 5 mps 756 mmHg 51%
    07:00 +27°C° 0 mm 6 mps 756 mmHg 45%
    08:00 +29°C° 0 mm 6 mps 756 mmHg 40%
    09:00 +32°C° 0 mm 7 mps 756 mmHg 35%
    10:00 +34°C° 0 mm 6 mps 755 mmHg 31%
    11:00 +35°C° 0 mm 6 mps 755 mmHg 28%
    12:00 +38°C° 0 mm 6 mps 755 mmHg 24%
    13:00 +38°C° 0.2 mm 6 mps 755 mmHg 23%
    14:00 +38°C° 0.2 mm 6 mps 755 mmHg 23%
    15:00 +39°C° 0.2 mm 5 mps 754 mmHg 23%
    16:00 +36°C° 1 mm 4 mps 755 mmHg 29%
    17:00 +34°C° 1 mm 3 mps 756 mmHg 36%
    18:00 +32°C° 1 mm 1 mps 756 mmHg 43%
    19:00 +30°C° 0.5 mm 1 mps 757 mmHg 44%
    20:00 +29°C° 0.5 mm 1 mps 758 mmHg 45%
    21:00 +28°C° 0.5 mm 1 mps 758 mmHg 46%
    22:00 +27°C° 0.1 mm 1 mps 759 mmHg 49%
    23:00 +26°C° 0.1 mm 1 mps 759 mmHg 52%
    Show more